Regional Weather Roundup
Issued by NWS Newport/Morehead, NC

Current Version | Previous Version | Graphics & Text | Print | Product List | Glossary Off
Versions: 1 2 3 4 5 6 7 8 9 10 11 12 13 14 15 16 17 18 19 20 21 22 23 24 25 26 27 28 29 30 31 32 33 34 35 36 37 38 39 40 41 42 43 44 45 46 47 48 49 50
000 ASUS42 KMHX 071512 RWRMHX WEATHER ROUNDUP FOR EASTERN NORTH CAROLINA NATIONAL WEATHER SERVICE NEWPORT/MOREHEAD CITY NC 1000 AM EST WED DEC 07 2016 NOTE: "FAIR" INDICATES FEW OR NO CLOUDS BELOW 12,000 FEET WITH NO SIGNIFICANT WEATHER AND/OR OBSTRUCTIONS TO VISIBILITY NCZ015>017-031-032-045>047-102-103-071600- NORTH COAST CITY SKY/WX TMP DP RH WIND PRES REMARKS EDENTON CLOUDY 49 45 85 N13 30.04S ELIZABETH CITY NOT AVBL KITTY HAWK CLOUDY 47 47 100 NW5 30.00R MANTEO CLOUDY 47 46 95 N12G17 30.02R $$ NCZ045>047-081-094-103-104-071600- CENTRAL COAST CITY SKY/WX TMP DP RH WIND PRES REMARKS FRISCO NOT AVBL $$ NCZ095-097-098-100-101-071600- SOUTHERN COAST CITY SKY/WX TMP DP RH WIND PRES REMARKS BEAUFORT NOT AVBL CEDAR ISLAND NOT AVBL JACKSONVILLE NOT AVBL PINEY ISLAND CLOUDY N/A N/A N/A NW16G23 30.04R WILMINGTON NOT AVBL $$ NCZ011>013-027>030-043-044-078>080-089-090>093-098-071600- COASTAL PLAIN CITY SKY/WX TMP DP RH WIND PRES REMARKS AHOSKIE CLOUDY 45 42 89 N5 30.07R CLINTON NOT AVBL ELIZABETHTOWN SUNNY 48 44 83 CALM 30.08R GOLDSBORO NOT AVBL GREENVILLE SUNNY 48 45 87 N6 30.07R HAVELOCK NOT AVBL KENANSVILLE SUNNY 50 43 76 NW7 30.07R KINSTON NOT AVBL NEW BERN NOT AVBL RICHLANDS NOT AVBL ROCKY MOUNT NOT AVBL WASHINGTON MOSUNNY 49 43 79 NW5 30.06R WHITEVILLE NOT AVBL $$ AMZ130-135-150-152-154-156-158-170-250-252-270-ANZ085-086-088-633-658-670-071600- MARINE OBSERVATIONS STATION/POSITION TIME TEMP WIND PRES WAVE SWELL AIR SEA DIR/SP/G HT/PER HT/PER (UTC) (F) (DEG/KT/KT) (MB) (FT/S) (FT/S) CHESAPEAKE LIGHT NOT AVBL 64 E VA BEACH 1350 53 59 340/ 23/ 27 1013.3 10/ 9 5/ 9 DUCK 1430 47 54 330/ 14/ 17 1015.5 2 E DUCK NOT AVBL OREGON INLET 1430 48 55 320/ 14/ 20 1015.9 13E OREGON INLT NOT AVBL HATTERAS CG 1430 48 60 320/ 18/ 21 1016.0 DIAMOND BUOY 1350 54 74 340/ 17/ 23 1015.2 6/ 5 3/ 8 CAPE LOOKOUT 1400 47 340/ 14/ 17 1016.4 BEAUFORT LAB 1430 48 55 340/ 6/ 12 1015.9 30 SE NEW RVR IN 1408 48 70 350/ 14/ 19 1017.0 30 SE NEW RVR IN NOT AVBL 27 SE WRIGHTSVLE 1408 52 68 350/ 16/ 21 1016.9 5 SE WRIGHTSVLE 1408 46 61 340/ 14/ 19 1017.4 225 S CAPE HAT 1350 71 74 320/ 14/ 16 1014.6 9/ 9 8/ 9 41 SE CHARLESTON 1350 58 74 360/ 10/ 12 1017.2 3/ 8 2/ 8 $$

USA.gov is the U.S. government's official web portal to all federal, state and local government web resources and services.